Погода в Песках

Россия / Забайкальский край     50°46′10″N   108°07′14″E
темп.,
°C
ветер,
м/с
пор.,
м/с
влажн.,
%
обл.,
%
осадки,
мм/ч
давл.,
гПа
погр.,
м
20 апреля, вт
вт2000:00+6всв124493 0.0 100620
03:00+6ссв1143100 0.0 100519
06:00+4ссз1144100 0.0 100410
09:00+8зсз1337100 0.0 1006231
12:00+12ссв1131100 0.0 1006868
15:00+15зсз2326100 0.0 10041154
18:00+15ссз3226100 0.0 10021058
21:00+6с48452 0.0 1006332
21 апреля, ср
ср2100:00+3ссв1162100 0.0 100822
03:00+1ссз226859 0.0 100839
06:00−2сз227428 0.0 101153
09:00+1ссз246096 0.0 1013579
12:00+5ссз444499 0.0 10131257
15:00+7с544098 0.0 10121590
18:00+3с674894 0.0 10151187
21:000с4955100 0.0 1020735
22 апреля, чт
чт2200:00−3с3881100 0.5 1023737
03:00−3ссз126188 0.7 1025116
06:00−5ссз1166100 0.0 102726
09:00−2ссв2443100 0.0 1028645
12:00+3ссв3327100 0.0 10261383
15:00+4ссв3424100 0.1 10241679
18:00+4ссв6632100 0.1 10261702
21:000ссв3754100 1.8 1030832
23 апреля, пт
пт2300:00−3с2495100 3.4 1034265
03:00−3с2596100 5.8 1036331
06:00−3ссз2594100 1.5 1038308
09:00−1ссв3682100 1.8 1039602
12:00+2св3578100 0.1 10401023
15:00+4св4670100 0.2 10391202
18:00+5св4670100 0.1 10381072
21:00+2св2483100 0.1 104079
24 апреля, сб
сб2400:00+1св1283100 0.0 104029
03:00+1всв118994 0.2 104034
06:00−1св2292100 0.1 104024
09:00+2всв128393 0.1 1039251
12:00+6в2374100 0.0 1036705
15:00+9юв2267100 0.0 1033989
18:00+10вюв2366100 0.0 1030918
21:00+5св1288100 0.0 102911